Tracking 17631 objects as of 6-May-2016
HD Live streaming from Space Station
objects crossing your sky now

DMSP 5D-2 F11 DEB

Track DMSP 5D-2 F11 DEB now!
10-day predictions


NORAD ID: 29070
Int'l Code: 1991-082BR
Perigee: 787.9 km
Apogee: 805.7 km
Inclination: 98.8 °
Period: 100.7 minutes
Semi major axis: 7167 km
RCS: 0.0089 m2 (small)
Launch date: November 28, 1991
Source: United States (US)
Launch site: AIR FORCE WESTERN TEST RANGE (AFWTR)

Note: This is SATELLITE DEBRIS
Your satellite tracking list
Your tracking list is empty





NASA's NSSDC Master Catalog

Two Line Element Set (TLE):
1 29070U 91082BR  16125.78820643  .00001747  00000-0  68590-3 0  9991
2 29070  98.7958 135.9719 0012428 269.0381  90.9377 14.30609118607277
Source of the keplerian elements: AFSPC

N2YO: 274